Location: Unspecified
(42.9300°N, 71.1866°W)
Time: 18:27:22
(UTC-04:00)

Cosmos 1674 - Visible Passes

Search period start: 02 August 2015 00:00
Search period end: 12 August 2015 00:00
Orbit: 505 x 531 km, 82.5° (Epoch: 01 August)

Date Brightness Start Highest point End Pass type
(mag) Time Alt. Az. Time Alt. Az. Time Alt. Az.
02 Aug 4.6 03:16:42 10° NNE 03:20:08 29° ENE 03:23:35 10° SE visible
02 Aug 4.2 04:52:54 10° NW 04:55:45 19° W 04:58:31 10° SW visible
03 Aug 4.8 03:02:40 10° NNE 03:05:54 25° ENE 03:09:12 10° SE visible
03 Aug 4.0 04:38:30 10° NW 04:41:36 23° W 04:44:15 12° SW visible
04 Aug 5.1 02:48:39 10° NNE 02:51:39 21° ENE 02:54:24 12° ESE visible
04 Aug 3.8 04:24:08 10° NNW 04:27:28 26° W 04:29:25 18° SW visible
05 Aug 5.3 02:34:40 10° NNE 02:37:24 18° ENE 02:39:38 12° ESE visible
05 Aug 3.6 04:09:48 10° NNW 04:13:18 31° W 04:14:39 24° SW visible
06 Aug 5.3 02:20:45 10° NNE 02:23:07 16° ENE 02:24:55 13° E visible
06 Aug 3.3 03:55:29 10° NNW 03:59:08 37° W 03:59:56 33° WSW visible
07 Aug 5.5 02:06:55 10° NE 02:08:50 14° ENE 02:10:15 12° E visible
07 Aug 3.0 03:41:12 10° NNW 03:44:57 44° W 03:45:16 43° WSW visible
08 Aug 5.6 01:53:14 10° NE 01:54:32 12° ENE 01:55:38 11° E visible
08 Aug 2.9 03:26:56 10° NNW 03:30:39 53° W 03:30:39 53° W visible
09 Aug 3.0 03:12:40 10° NNW 03:16:04 58° NW 03:16:04 58° NW visible
10 Aug 3.3 02:58:25 10° N 03:01:31 53° NNW 03:01:31 53° NNW visible
11 Aug 3.7 02:44:11 10° N 02:46:59 45° N 02:46:59 45° N visible
